TimeMST,TemperatureF,Dew PointF,Humidity,Sea Level PressureIn,VisibilityMPH,Wind Direction,Wind SpeedMPH,Gust SpeedMPH,PrecipitationIn,Events,Conditions,WindDirDegrees,DateUTC
12:15 AM,87.8,53.6,31,29.89,10.0,ENE,4.6,-,N/A,,Clear,60,2013-09-06 07:15:00
12:35 AM,87.8,55.4,33,29.89,10.0,ENE,4.6,-,N/A,,Clear,60,2013-09-06 07:35:00
12:55 AM,87.8,55.4,33,29.89,10.0,East,5.8,-,N/A,,Clear,90,2013-09-06 07:55:00
1:15 AM,87.8,55.4,33,29.89,10.0,East,8.1,-,N/A,,Clear,100,2013-09-06 08:15:00
1:35 AM,87.8,57.2,35,29.89,10.0,East,6.9,-,N/A,,Clear,100,2013-09-06 08:35:00
1:55 AM,87.8,55.4,33,29.89,10.0,ESE,5.8,-,N/A,,Clear,110,2013-09-06 08:55:00
2:15 AM,87.8,55.4,33,29.89,10.0,SE,4.6,-,N/A,,Clear,130,2013-09-06 09:15:00
2:35 AM,84.2,57.2,40,29.89,10.0,East,3.5,-,N/A,,Clear,100,2013-09-06 09:35:00
2:55 AM,84.2,57.2,40,29.89,10.0,Calm,Calm,-,N/A,,Clear,0,2013-09-06 09:55:00
3:15 AM,82.4,55.4,39,29.89,10.0,NNE,3.5,-,N/A,,Clear,30,2013-09-06 10:15:00
3:35 AM,82.4,55.4,39,29.89,10.0,NNE,4.6,-,N/A,,Clear,30,2013-09-06 10:35:00
3:55 AM,82.4,55.4,39,29.89,10.0,NNE,3.5,-,N/A,,Clear,30,2013-09-06 10:55:00
4:15 AM,80.6,55.4,42,29.89,10.0,Calm,Calm,-,N/A,,Clear,0,2013-09-06 11:15:00
4:35 AM,80.6,55.4,42,29.89,10.0,NE,3.5,-,N/A,,Clear,40,2013-09-06 11:35:00
4:55 AM,80.6,55.4,42,29.89,10.0,ENE,3.5,-,N/A,,Clear,60,2013-09-06 11:55:00
5:15 AM,78.8,55.4,44,29.89,10.0,Calm,Calm,-,N/A,,Clear,0,2013-09-06 12:15:00
5:35 AM,78.8,55.4,44,29.90,10.0,ENE,3.5,-,N/A,,Clear,60,2013-09-06 12:35:00
5:55 AM,78.8,55.4,44,29.90,10.0,NE,4.6,-,N/A,,Clear,50,2013-09-06 12:55:00
6:15 AM,78.8,55.4,44,29.90,10.0,East,5.8,-,N/A,,Clear,80,2013-09-06 13:15:00
6:35 AM,80.6,55.4,42,29.91,10.0,NE,6.9,-,N/A,,Clear,50,2013-09-06 13:35:00
6:55 AM,82.4,55.4,39,29.92,10.0,East,6.9,-,N/A,,Clear,90,2013-09-06 13:55:00
7:15 AM,84.2,55.4,37,29.92,10.0,East,5.8,-,N/A,,Clear,90,2013-09-06 14:15:00
7:35 AM,84.2,55.4,37,29.93,10.0,ESE,5.8,-,N/A,,Clear,110,2013-09-06 14:35:00
7:55 AM,86.0,57.2,37,29.93,10.0,ESE,6.9,-,N/A,,Clear,110,2013-09-06 14:55:00
8:15 AM,87.8,57.2,35,29.93,10.0,ESE,5.8,-,N/A,,Clear,110,2013-09-06 15:15:00
8:35 AM,87.8,57.2,35,29.93,10.0,SE,8.1,-,N/A,,Clear,130,2013-09-06 15:35:00
8:55 AM,91.4,57.2,31,29.93,10.0,SE,4.6,-,N/A,,Clear,140,2013-09-06 15:55:00
9:15 AM,93.2,55.4,28,29.94,10.0,ESE,6.9,-,N/A,,Clear,120,2013-09-06 16:15:00
9:35 AM,93.2,55.4,28,29.94,10.0,SE,5.8,-,N/A,,Clear,130,2013-09-06 16:35:00
9:55 AM,96.8,55.4,25,29.94,10.0,ESE,8.1,-,N/A,,Clear,110,2013-09-06 16:55:00
10:15 AM,96.8,55.4,25,29.93,10.0,SE,6.9,-,N/A,,Clear,130,2013-09-06 17:15:00
10:35 AM,96.8,55.4,25,29.93,10.0,SE,3.5,-,N/A,,Clear,140,2013-09-06 17:35:00
10:55 AM,98.6,55.4,24,29.93,10.0,SSE,9.2,-,N/A,,Clear,150,2013-09-06 17:55:00
11:15 AM,100.4,55.4,22,29.92,10.0,ESE,5.8,16.1,N/A,,Clear,110,2013-09-06 18:15:00
11:35 AM,100.4,55.4,22,29.91,10.0,Calm,Calm,-,N/A,,Clear,0,2013-09-06 18:35:00
11:55 AM,102.2,53.6,20,29.91,10.0,East,6.9,-,N/A,,Clear,90,2013-09-06 18:55:00
12:15 PM,102.2,53.6,20,29.90,10.0,SSW,6.9,-,N/A,,Clear,200,2013-09-06 19:15:00
12:35 PM,102.2,53.6,20,29.89,10.0,ESE,6.9,-,N/A,,Clear,110,2013-09-06 19:35:00
12:55 PM,104.0,53.6,19,29.88,10.0,ESE,9.2,-,N/A,,Clear,110,2013-09-06 19:55:00
1:15 PM,102.2,53.6,20,29.87,10.0,East,8.1,-,N/A,,Clear,90,2013-09-06 20:15:00
1:35 PM,104.0,51.8,17,29.86,10.0,East,4.6,-,N/A,,Clear,90,2013-09-06 20:35:00
1:55 PM,105.8,51.8,17,29.84,10.0,East,13.8,17.3,N/A,,Clear,100,2013-09-06 20:55:00
2:15 PM,100.4,53.6,21,29.84,8.0,ESE,20.7,27.6,N/A,,Clear,110,2013-09-06 21:15:00
2:35 PM,98.6,55.4,24,29.83,10.0,SE,13.8,-,N/A,Thunderstorm,Clear,130,2013-09-06 21:35:00
2:55 PM,100.4,53.6,21,29.82,10.0,SE,11.5,-,N/A,,Clear,140,2013-09-06 21:55:00
3:15 PM,104.0,53.6,19,29.82,10.0,South,15.0,-,N/A,,Clear,170,2013-09-06 22:15:00
3:35 PM,100.4,55.4,22,29.82,10.0,South,12.7,21.9,N/A,,Clear,180,2013-09-06 22:35:00
3:55 PM,100.4,53.6,21,29.81,10.0,South,13.8,-,N/A,,Clear,170,2013-09-06 22:55:00
4:15 PM,98.6,53.6,22,29.81,10.0,SSW,12.7,18.4,N/A,,Clear,200,2013-09-06 23:15:00
4:35 PM,98.6,51.8,21,29.82,10.0,WSW,17.3,-,N/A,,Clear,240,2013-09-06 23:35:00
4:55 PM,96.8,55.4,25,29.83,10.0,SW,13.8,19.6,N/A,,Clear,220,2013-09-06 23:55:00
5:15 PM,95.0,57.2,28,29.84,10.0,South,8.1,-,N/A,,Clear,190,2013-09-07 00:15:00
5:35 PM,93.2,57.2,30,29.83,10.0,West,4.6,-,N/A,,Clear,260,2013-09-07 00:35:00
5:55 PM,93.2,57.2,30,29.82,10.0,NW,5.8,-,N/A,,Clear,320,2013-09-07 00:55:00
6:15 PM,93.2,55.4,28,29.82,10.0,WNW,3.5,-,N/A,,Clear,300,2013-09-07 01:15:00
6:35 PM,93.2,55.4,28,29.83,10.0,West,4.6,-,N/A,,Clear,270,2013-09-07 01:35:00
6:55 PM,93.2,55.4,28,29.84,10.0,SSW,10.4,-,N/A,,Clear,200,2013-09-07 01:55:00
7:15 PM,91.4,57.2,31,29.84,10.0,WSW,6.9,-,N/A,,Clear,250,2013-09-07 02:15:00
7:35 PM,91.4,57.2,31,29.84,10.0,SW,5.8,-,N/A,,Clear,220,2013-09-07 02:35:00
7:55 PM,89.6,59.0,36,29.86,10.0,SSW,5.8,-,N/A,,Clear,200,2013-09-07 02:55:00
8:15 PM,89.6,60.8,38,29.87,10.0,SSW,8.1,-,N/A,,Clear,210,2013-09-07 03:15:00
8:35 PM,87.8,60.8,40,29.89,10.0,SSW,13.8,18.4,N/A,,Clear,200,2013-09-07 03:35:00
8:55 PM,87.8,60.8,40,29.90,10.0,SSW,12.7,20.7,N/A,,Clear,210,2013-09-07 03:55:00
9:15 PM,86.0,60.8,43,29.90,10.0,SSW,13.8,18.4,N/A,,Clear,210,2013-09-07 04:15:00
9:35 PM,84.2,62.6,48,29.91,10.0,SSW,12.7,-,N/A,,Clear,200,2013-09-07 04:35:00
9:55 PM,82.4,62.6,51,29.92,10.0,SSW,17.3,28.8,N/A,,Partly Cloudy,200,2013-09-07 04:55:00
10:15 PM,82.4,62.6,51,29.93,10.0,SW,11.5,-,N/A,,Clear,230,2013-09-07 05:15:00
10:35 PM,82.4,60.8,48,29.95,10.0,WSW,12.7,-,N/A,,Clear,240,2013-09-07 05:35:00
10:55 PM,84.2,57.2,40,29.94,10.0,WSW,8.1,-,N/A,,Clear,250,2013-09-07 05:55:00
11:15 PM,86.0,55.4,35,29.94,10.0,WSW,12.7,-,N/A,,Clear,240,2013-09-07 06:15:00
11:35 PM,84.2,57.2,40,29.95,10.0,West,10.4,-,N/A,,Clear,270,2013-09-07 06:35:00
11:55 PM,84.2,59.0,42,29.95,10.0,WNW,10.4,-,N/A,,Clear,300,2013-09-07 06:55:00